Regional Weather Roundup
Issued by NWS

Home | Current Version | Previous Version | Text Only | Print | Product List | Glossary Off
Versions: 1 2 3 4 5 6 7 8 9 10 11 12 13 14 15 16 17 18 19 20 21 22 23 24 25 26 27 28 29 30 31 32 33 34 35 36 37 38 39 40 41 42 43 44 45 46 47 48 49 50

493
ASUS44 KLIX 191911
RWRLA
LOUISIANA WEATHER ROUNDUP
NATIONAL WEATHER SERVICE NEW ORLEANS LA
200 PM CDT TUE AUG 19 2014

NOTE: "FAIR" INDICATES FEW OR NO CLOUDS BELOW 12,000 FEET WITH NO
      SIGNIFICANT WEATHER AND/OR OBSTRUCTIONS TO VISIBILITY.
      SKY/WX - SKY CONDITION AND SIGNIFICANT WEATHER.
      TMP - AIR TEMPERATURE.    DP   - DEWPOINT TEMPERATURE.
      RH  - RELATIVE HUMIDITY.  PRES - PRESSURE.
      HX  - HEAT INDEX.         WCI  - WIND CHILL INDEX.

*  THESE STATIONS ARE NOT NWS OR FAA STATIONS AND ARE NOT UNDER
   NWS QUALITY CONTROL.

LAZ040-048-061>063-065-066-069-192000-
SOUTHEAST LOUISIANA

CITY           SKY/WX    TMP DP  RH WIND       PRES   REMARKS
N.O. AUDUBON     N/A     96  75  51 MISG        N/A  HX 107
N.O. INTL ARPT PTSUNNY   94  74  52 S10       29.98F THUNDER HX 104
N.O. LAKEFRONT MOSUNNY   91  74  57 N7        29.99F HX 100
N.O. DOWNTOWN* MOCLDY    93  70  46 SW5       29.99F HX  99
SLIDELL        SUNNY     92  69  47 MISG      29.98F HX  97
BATON ROUGE    MOSUNNY   94  68  42 W7        29.97F HX  98
BOOTHVILLE     MOSUNNY   87  75  67 SW10      30.01F HX  96
BELLE CHASSE   PTSUNNY   93  71  48 SW8       29.98F HX 100
BOGALUSA*      FAIR      93  72  49 S8        29.99F HX 100
GALLIANO*      NOT AVBL
NEW ROADS*     FAIR      90  72  55 MISG      29.97F HX  97
GONZALES*      MOCLDY    83  75  77 W5G22     29.99R
HAMMOND*       MOSUNNY   95  68  41 SW6       29.99F HX  99
HOUMA*         MOSUNNY   93  66  40 S7        29.98F HX  96
PORT FOURCHON* PTCLDY    90  72  55 S7        30.01F HX  96

$$

LAZ041-044-053-054-192000-
SOUTHWEST LOUISIANA

CITY           SKY/WX    TMP DP  RH WIND       PRES   REMARKS
LAKE CHARLES   PTSUNNY   88  77  69 SW6       29.96F THUNDER HX 100
LAFAYETTE      PTSUNNY   91  72  53 SE3       29.96F HX  98
PATTERSON      MOSUNNY  N/A N/A N/A MISG        N/A
SALT POINT       N/A     93  78  61 VRB5      29.99F HX 108
NEW IBERIA     MOSUNNY   94  76  55 SW10      29.97F HX 106
CHENAULT AIRPK PTSUNNY   82  72  69 NW16G23   29.98F THUNDER

$$

LAZ027-028-192000-
CENTRAL LOUISIANA

CITY           SKY/WX    TMP DP  RH WIND       PRES   REMARKS
FORT POLK      MOSUNNY   91  70  49 VRB3      29.97F HX  96
ALEXANDRIA INT MOSUNNY   93  71  48 W7        29.94F HX 100
ALEXANDRIA     PTSUNNY   92  73  53 W7        29.96F HX 100

$$

LAZ001-002-192000-
NORTHWEST LOUISIANA

CITY           SKY/WX    TMP DP  RH WIND       PRES   REMARKS
SHREVEPORT     MOSUNNY   93  72  50 SW9G17    29.93F HX 101
BARKSDALE AFB  MOSUNNY   93  69  45 SW9       29.93F HX  98
DTN SHREVEPORT SUNNY     93  69  45 SW5       29.93F HX  98

$$

LAZ014-016-192000-
NORTHEAST LOUISIANA

CITY           SKY/WX    TMP DP  RH WIND       PRES   REMARKS
MONROE         MOSUNNY   92  74  55 SW9       29.95F HX 101
TALLULAH       MOSUNNY   90  75  61 S6        29.95F HX 100

$$




USA.gov is the U.S. government's official web portal to all federal, state and local government web resources and services.